| time (UTC) | temp F | wind direction | speed MPH | gust MPH | rain 1hr in | rain 24hr in | rain mn in | humidity % | barometer mb |
| 20260508100744 | 27 | 165 | 5.0 | 9.0 | 0.00 | 0.00 | 0.00 | 6550.2 | |
| 20260508095316 | 27 | 135 | 4.0 | 6.0 | 0.00 | 0.00 | 0.00 | 6550.2 | |
| 20260508095112 | 27 | 243 | 2.0 | 6.0 | 0.00 | 0.00 | 0.00 | 6550.2 | |
| 20260508095008 | 27 | 252 | 3.0 | 9.0 | 0.00 | 0.00 | 0.00 | 6550.2 | |
| 20260508094908 | 27 | 252 | 3.0 | 9.0 | 0.00 | 0.00 | 0.00 | 6550.2 | |
| 20260508094533 | 27 | 202 | 0.0 | 4.0 | 0.00 | 0.00 | 0.00 | 6550.2 | |
| 20260508094018 | 27 | 90 | 3.0 | 6.0 | 0.00 | 0.00 | 0.01 | 6550.2 | |
| 20260508093138 | 27 | 190 | 1.0 | 7.0 | 0.00 | 0.00 | 0.01 | 6550.2 | |
| 20260508092526 | 27 | 159 | 3.0 | 13.0 | 0.00 | 0.00 | 0.01 | 6550.2 | |
| 20260508092322 | 27 | 171 | 6.0 | 6.0 | 0.00 | 0.00 | 0.01 | 6550.2 | |
| 20260508092118 | 27 | 218 | 4.0 | 7.0 | 0.00 | 0.00 | 0.00 | 6550.2 | |
| 20260508091914 | 27 | 193 | 3.0 | 7.0 | 0.00 | 0.00 | 0.00 | 6550.2 | |
| 20260508091506 | 27 | 205 | 3.0 | 7.0 | 0.00 | 0.00 | 0.00 | 6550.2 | |
| 20260508091302 | 27 | 188 | 4.0 | 7.0 | 0.00 | 0.00 | 0.00 | 6550.2 | |
| 20260508091058 | 27 | 222 | 7.0 | 7.0 | 0.00 | 0.00 | 0.00 | 6550.2 | |
| 20260508090759 | 27 | 197 | 3.0 | 7.0 | 0.00 | 0.00 | 0.00 | 6550.2 | |
| 20260508090650 | 27 | 197 | 3.0 | 7.0 | 0.00 | 0.00 | 0.00 | 6550.2 | |
| 20260508090242 | 27 | 221 | 3.0 | 7.0 | 0.00 | 0.00 | 0.00 | 6550.2 | |
| 20260508085834 | 27 | 229 | 1.0 | 4.0 | 0.00 | 0.00 | 0.00 | 6550.2 | |
| 20260508085426 | 27 | 148 | 0.0 | 1.0 | 0.00 | 0.00 | 0.00 | 6550.2 | |
| 20260508085222 | 27 | 189 | 0.0 | 3.0 | 0.00 | 0.00 | 0.00 | 6550.2 | |
| 20260508084814 | 27 | 193 | 2.0 | 3.0 | 0.00 | 0.00 | 0.00 | 6550.2 | |
| 20260508084406 | 27 | 180 | 0.0 | 5.0 | 0.00 | 0.00 | 0.00 | 6550.2 | |
| 20260508084202 | 27 | 266 | 5.0 | 5.0 | 0.00 | 0.00 | 0.00 | 6550.2 | |
| 20260508083958 | 27 | 270 | 2.0 | 4.0 | 0.00 | 0.00 | 0.00 | 6550.2 | |
| 20260508083754 | 27 | 238 | 0.0 | 4.0 | 0.00 | 0.00 | 0.00 | 6550.2 | |
| 20260508083550 | 27 | 264 | 3.0 | 3.0 | 0.00 | 0.00 | 0.00 | 6550.2 | |
| 20260508083346 | 27 | 225 | 0.0 | 4.0 | 0.00 | 0.00 | 0.00 | 6550.2 | |
| 20260508083142 | 27 | 224 | 2.0 | 4.0 | 0.00 | 0.00 | 0.00 | 6550.2 | |
| 20260508082938 | 27 | 112 | 0.0 | 0.0 | 0.00 | 0.00 | 0.00 | 6550.2 | |
| 20260508082805 | 27 | 255 | 2.0 | 5.0 | 0.00 | 0.00 | 0.00 | 6550.2 | |
| 20260508082601 | 27 | 240 | 2.0 | 4.0 | 0.00 | 0.00 | 0.00 | 6550.2 | |
| 20260508082357 | 27 | 225 | 1.0 | 3.0 | 0.00 | 0.00 | 0.00 | 6550.2 | |
| 20260508082153 | 27 | 225 | 1.0 | 4.0 | 0.00 | 0.00 | 0.00 | 6550.2 | |
| 20260508081949 | 27 | 180 | 1.0 | 4.0 | 0.00 | 0.00 | 0.00 | 6550.2 | |
| 20260508081745 | 27 | 242 | 2.0 | 4.0 | 0.00 | 0.00 | 0.00 | 6550.2 | |
| 20260508081541 | 27 | 213 | 2.0 | 5.0 | 0.00 | 0.00 | 0.00 | 6550.2 | |
| 20260508081337 | 27 | 222 | 4.0 | 5.0 | 0.00 | 0.00 | 0.00 | 6550.2 | |
| 20260508081133 | 27 | 207 | 5.0 | 5.0 | 0.00 | 0.00 | 0.00 | 6550.2 | |
| 20260508080929 | 27 | 120 | 0.0 | 0.0 | 0.00 | 0.00 | 0.00 | 6550.2 | |
| 20260508080918 | 27 | 173 | 0.0 | 4.0 | 0.00 | 0.00 | 0.01 | 6550.2 | |
| 20260508080714 | 27 | 205 | 2.0 | 4.0 | 0.00 | 0.00 | 0.01 | 6550.2 | |
| 20260508080510 | 27 | 228 | 1.0 | 4.0 | 0.00 | 0.00 | 0.01 | 6550.2 | |
| 20260508080307 | 27 | 198 | 1.0 | 4.0 | 0.00 | 0.00 | 0.01 | 6550.2 | |
| 20260508075858 | 27 | 180 | 2.0 | 4.0 | 0.00 | 0.00 | 0.01 | 6550.2 | |
| 20260508075654 | 27 | 201 | 3.0 | 4.0 | 0.00 | 0.00 | 0.01 | 6550.2 | |
| 20260508075450 | 27 | 188 | 1.0 | 3.0 | 0.00 | 0.00 | 0.01 | 6550.2 | |
| 20260508075246 | 27 | 235 | 3.0 | 3.0 | 0.00 | 0.00 | 0.01 | 6550.2 | |
| 20260508075042 | 27 | 231 | 1.0 | 3.0 | 0.00 | 0.00 | 0.01 | 6550.2 | |
| 20260508074838 | 27 | 225 | 1.0 | 4.0 | 0.00 | 0.00 | 0.01 | 6550.2 | |
| 20260508074634 | 27 | 207 | 3.0 | 4.0 | 0.00 | 0.00 | 0.01 | 6550.2 | |
| 20260508074430 | 27 | 198 | 1.0 | 3.0 | 0.00 | 0.00 | 0.01 | 6550.2 | |
| 20260508074226 | 27 | 217 | 1.0 | 3.0 | 0.00 | 0.00 | 0.01 | 6550.2 | |
| 20260508074022 | 27 | 225 | 2.0 | 3.0 | 0.00 | 0.00 | 0.01 | 6550.2 | |
| 20260508073908 | 27 | 146 | 1.0 | 3.0 | 0.00 | 0.00 | 0.01 | 6550.2 | |
| 20260508073819 | 27 | 146 | 1.0 | 3.0 | 0.00 | 0.00 | 0.01 | 6550.2 | |
| 20260508073614 | 27 | 218 | 0.0 | 2.0 | 0.00 | 0.00 | 0.01 | 6550.2 | |
| 20260508073411 | 27 | 225 | 1.0 | 2.0 | 0.00 | 0.00 | 0.01 | 6550.2 | |
| 20260508073206 | 27 | 180 | 0.0 | 2.0 | 0.00 | 0.00 | 0.01 | 6550.2 | |
| 20260508073003 | 27 | 176 | 2.0 | 2.0 | 0.00 | 0.00 | 0.01 | 6550.2 | |
| 20260508072758 | 27 | 203 | 1.0 | 3.0 | 0.00 | 0.00 | 0.01 | 6550.2 | |
| 20260508072555 | 27 | 225 | 1.0 | 3.0 | 0.00 | 0.00 | 0.01 | 6550.2 | |
| 20260508072350 | 27 | 160 | 1.0 | 3.0 | 0.00 | 0.00 | 0.01 | 6550.2 | |
| 20260508072147 | 27 | 180 | 1.0 | 1.0 | 0.00 | 0.00 | 0.01 | 6550.2 | |
| 20260508071942 | 27 | 180 | 0.0 | 1.0 | 0.00 | 0.00 | 0.01 | 6550.2 | |
| 20260508071819 | 27 | 135 | 1.0 | 2.0 | 0.00 | 0.00 | 0.01 | 6550.2 | |
| 20260508071739 | 27 | 135 | 1.0 | 2.0 | 0.00 | 0.00 | 0.01 | 6550.2 | |
| 20260508071534 | 27 | 146 | 0.0 | 2.0 | 0.00 | 0.00 | 0.01 | 6550.2 | |
| 20260508071331 | 27 | 181 | 1.0 | 2.0 | 0.00 | 0.00 | 0.01 | 6550.2 | |
| 20260508071137 | 27 | 135 | 0.0 | 0.0 | 0.00 | 0.00 | 0.01 | 6550.2 | |
| 20260508071017 | 27 | 180 | 0.0 | 0.0 | 0.00 | 0.00 | 0.01 | 6550.2 | |
| 20260508070923 | 27 | 180 | 0.0 | 0.0 | 0.00 | 0.00 | 0.01 | 6550.2 | |
| 20260508070752 | 27 | 180 | 0.0 | 1.0 | 0.00 | 0.00 | 0.01 | 6550.2 | |
| 20260508070718 | 27 | 180 | 0.0 | 1.0 | 0.00 | 0.00 | 0.01 | 6550.2 | |
| 20260508070515 | 27 | 225 | 0.0 | 1.0 | 0.00 | 0.00 | 0.01 | 6550.2 | |
| 20260508070107 | 27 | 0 | 0.0 | 0.0 | 0.00 | 0.00 | 0.01 | 6550.2 | |
| 20260508065903 | 27 | 0 | 0.0 | 0.0 | 0.00 | 0.00 | 0.01 | 6550.2 | |
| 20260508065659 | 27 | 180 | 0.0 | 1.0 | 0.00 | 0.00 | 0.01 | 6550.2 | |
| 20260508065455 | 27 | 180 | 0.0 | 1.0 | 0.00 | 0.00 | 0.01 | 6550.2 | |
| 20260508065251 | 27 | 180 | 0.0 | 1.0 | 0.00 | 0.00 | 0.01 | 6550.2 | |
| 20260508065047 | 27 | 225 | 0.0 | 0.0 | 0.00 | 0.00 | 0.01 | 6550.2 | |
| 20260508064843 | 27 | 180 | 0.0 | 0.0 | 0.00 | 0.00 | 0.01 | 6550.2 | |
| 20260508064639 | 27 | 180 | 0.0 | 1.0 | 0.00 | 0.00 | 0.01 | 6550.2 | |
| 20260508064231 | 27 | 45 | 1.0 | 1.0 | 0.00 | 0.00 | 0.01 | 6550.2 | |
| 20260508064027 | 27 | 315 | 0.0 | 2.0 | 0.00 | 0.00 | 0.01 | 6550.2 | |
| 20260508063823 | 27 | 315 | 0.0 | 2.0 | 0.00 | 0.00 | 0.01 | 6550.2 | |
| 20260508063619 | 27 | 315 | 0.0 | 2.0 | 0.00 | 0.00 | 0.01 | 6550.2 | |
| 20260508063415 | 27 | 289 | 1.0 | 1.0 | 0.00 | 0.00 | 0.01 | 6550.2 | |
| 20260508063251 | 27 | 180 | 0.0 | 0.0 | 0.00 | 0.00 | 0.01 | 6550.2 | |
| 20260508063211 | 27 | 180 | 0.0 | 0.0 | 0.00 | 0.00 | 0.01 | 6550.2 | |
| 20260508063007 | 27 | 225 | 0.0 | 1.0 | 0.00 | 0.00 | 0.01 | 6550.2 | |
| 20260508062803 | 27 | 180 | 0.0 | 1.0 | 0.00 | 0.00 | 0.01 | 6550.2 | |
| 20260508062559 | 27 | 180 | 0.0 | 1.0 | 0.00 | 0.00 | 0.01 | 6550.2 | |
| 20260508062432 | 27 | 135 | 0.0 | 1.0 | 0.00 | 0.00 | 0.01 | 6550.2 | |
| 20260508062355 | 27 | 135 | 0.0 | 1.0 | 0.00 | 0.00 | 0.01 | 6550.2 | |
| 20260508062151 | 27 | 137 | 0.0 | 1.0 | 0.00 | 0.00 | 0.01 | 6550.2 | |
| 20260508062021 | 27 | 124 | 1.0 | 1.0 | 0.00 | 0.00 | 0.01 | 6550.2 | |
| 20260508061947 | 27 | 124 | 1.0 | 1.0 | 0.00 | 0.00 | 0.01 | 6550.2 | |
| 20260508061539 | 27 | 180 | 1.0 | 2.0 | 0.00 | 0.00 | 0.01 | 6550.2 | |
| 20260508061131 | 27 | 92 | 1.0 | 2.0 | 0.00 | 0.00 | 0.01 | 6550.2 | |
| 20260508060927 | 27 | 179 | 0.0 | 1.0 | 0.00 | 0.00 | 0.01 | 6550.2 | |
| 20260508060723 | 27 | 144 | 1.0 | 2.0 | 0.00 | 0.00 | 0.01 | 6550.2 | |
| 20260508060519 | 27 | 135 | 0.0 | 2.0 | 0.00 | 0.00 | 0.01 | 6550.2 | |
| 20260508060355 | 27 | 69 | 0.0 | 2.0 | 0.00 | 0.00 | 0.01 | 6550.2 | |
| 20260508060315 | 27 | 69 | 0.0 | 2.0 | 0.00 | 0.00 | 0.01 | 6550.2 | |
| 20260508060111 | 27 | 148 | 0.0 | 2.0 | 0.00 | 0.00 | 0.01 | 6550.2 | |
| 20260508060006 | 27 | 84 | 2.0 | 2.0 | 0.00 | 0.00 | 0.01 | 6550.2 | |
| 20260508055907 | 27 | 84 | 2.0 | 2.0 | 0.00 | 0.00 | 0.01 | 6550.2 | |
| 20260508055738 | 27 | 90 | 1.0 | 1.0 | 0.00 | 0.00 | 0.01 | 6550.2 | |
| 20260508055703 | 27 | 90 | 1.0 | 1.0 | 0.00 | 0.00 | 0.01 | 6550.2 | |
| 20260508055537 | 27 | 135 | 0.0 | 1.0 | 0.00 | 0.00 | 0.01 | 6550.2 | |
| 20260508055459 | 27 | 135 | 0.0 | 1.0 | 0.00 | 0.00 | 0.01 | 6550.2 | |
| 20260508055255 | 27 | 135 | 1.0 | 2.0 | 0.00 | 0.00 | 0.01 | 6550.2 | |
| 20260508055143 | 27 | 121 | 1.0 | 2.0 | 0.00 | 0.00 | 0.01 | 6550.2 | |
| 20260508055051 | 27 | 121 | 1.0 | 2.0 | 0.00 | 0.00 | 0.01 | 6550.2 | |
| 20260508054847 | 27 | 135 | 1.0 | 2.0 | 0.00 | 0.00 | 0.01 | 6550.2 | |
| 20260508054739 | 27 | 130 | 0.0 | 1.0 | 0.00 | 0.00 | 0.01 | 6550.2 | |
| 20260508054643 | 27 | 130 | 0.0 | 1.0 | 0.00 | 0.00 | 0.01 | 6550.2 | |
| 20260508054309 | 27 | 135 | 0.0 | 0.0 | 0.00 | 0.00 | 0.01 | 6550.2 | |
| 20260508054235 | 27 | 135 | 0.0 | 0.0 | 0.00 | 0.00 | 0.01 | 6550.2 | |
| 20260508054031 | 27 | 161 | 0.0 | 1.0 | 0.00 | 0.00 | 0.01 | 6550.2 | |
| 20260508053623 | 27 | 90 | 0.0 | 1.0 | 0.00 | 0.00 | 0.01 | 6550.2 | |
| 20260508053503 | 27 | 148 | 0.0 | 1.0 | 0.00 | 0.00 | 0.01 | 6550.2 | |
| 20260508053419 | 27 | 148 | 0.0 | 1.0 | 0.00 | 0.00 | 0.01 | 6550.2 | |
| 20260508053259 | 27 | 180 | 0.0 | 1.0 | 0.00 | 0.00 | 0.01 | 6550.2 | |
| 20260508053215 | 27 | 180 | 0.0 | 1.0 | 0.00 | 0.00 | 0.01 | 6550.2 | |
| 20260508053046 | 27 | 135 | 0.0 | 1.0 | 0.00 | 0.00 | 0.01 | 6550.2 | |
| 20260508053011 | 27 | 135 | 0.0 | 1.0 | 0.00 | 0.00 | 0.01 | 6550.2 | |
| 20260508052603 | 27 | 93 | 1.0 | 1.0 | 0.00 | 0.00 | 0.01 | 6550.2 | |
| 20260508052434 | 27 | 135 | 0.0 | 2.0 | 0.00 | 0.00 | 0.01 | 6550.2 | |
| 20260508052359 | 27 | 135 | 0.0 | 2.0 | 0.00 | 0.00 | 0.01 | 6550.2 | |
| 20260508052230 | 27 | 135 | 0.0 | 2.0 | 0.00 | 0.00 | 0.01 | 6550.2 | |
| 20260508052155 | 27 | 135 | 0.0 | 2.0 | 0.00 | 0.00 | 0.01 | 6550.2 | |
| 20260508051826 | 27 | 126 | 0.0 | 1.0 | 0.00 | 0.00 | 0.01 | 6550.2 | |
| 20260508051747 | 27 | 126 | 0.0 | 1.0 | 0.00 | 0.00 | 0.01 | 6550.2 | |
| 20260508051624 | 27 | 135 | 1.0 | 1.0 | 0.00 | 0.00 | 0.01 | 6550.2 | |
| 20260508051543 | 27 | 135 | 1.0 | 1.0 | 0.00 | 0.00 | 0.01 | 6550.2 | |
| 20260508051435 | 27 | 180 | 0.0 | 0.0 | 0.00 | 0.00 | 0.01 | 6550.2 | |
| 20260508051339 | 27 | 180 | 0.0 | 0.0 | 0.00 | 0.00 | 0.01 | 6550.2 | |
| 20260508051135 | 27 | 180 | 0.0 | 0.0 | 0.00 | 0.00 | 0.01 | 6550.2 | |
| 20260508050931 | 27 | 89 | 0.0 | 1.0 | 0.00 | 0.00 | 0.01 | 6550.2 | |
| 20260508050727 | 27 | 89 | 0.0 | 1.0 | 0.00 | 0.00 | 0.01 | 6550.2 | |
| 20260508050524 | 27 | 97 | 0.0 | 0.0 | 0.00 | 0.00 | 0.01 | 6550.2 | |
| 20260508050319 | 27 | 176 | 0.0 | 1.0 | 0.00 | 0.00 | 0.01 | 6550.2 | |
| 20260508050116 | 27 | 225 | 0.0 | 2.0 | 0.00 | 0.00 | 0.01 | 6550.2 | |
| 20260508045911 | 27 | 225 | 0.0 | 2.0 | 0.00 | 0.00 | 0.01 | 6550.2 | |
| 20260508045708 | 27 | 135 | 0.0 | 2.0 | 0.00 | 0.00 | 0.01 | 6550.2 | |
| 20260508045503 | 27 | 73 | 0.0 | 1.0 | 0.00 | 0.00 | 0.01 | 6550.2 | |
| 20260508045300 | 27 | 89 | 0.0 | 1.0 | 0.00 | 0.00 | 0.01 | 6550.2 | |
| 20260508045055 | 27 | 89 | 0.0 | 1.0 | 0.00 | 0.00 | 0.01 | 6550.2 | |
| 20260508044852 | 27 | 135 | 1.0 | 2.0 | 0.00 | 0.00 | 0.01 | 6550.2 | |
| 20260508044444 | 27 | 176 | 1.0 | 2.0 | 0.00 | 0.00 | 0.00 | 6550.2 | |
| 20260508044239 | 27 | 149 | 0.0 | 2.0 | 0.00 | 0.00 | 0.00 | 6550.2 | |
| 20260508044036 | 27 | 180 | 0.0 | 2.0 | 0.00 | 0.00 | 0.00 | 6550.2 | |
| 20260508043831 | 27 | 135 | 1.0 | 2.0 | 0.00 | 0.00 | 0.00 | 6550.2 | |
| 20260508043628 | 27 | 135 | 0.0 | 2.0 | 0.00 | 0.00 | 0.00 | 6550.2 | |
| 20260508043423 | 27 | 135 | 1.0 | 2.0 | 0.00 | 0.00 | 0.00 | 6550.2 | |
| 20260508043220 | 27 | 135 | 0.0 | 1.0 | 0.00 | 0.00 | 0.00 | 6550.2 | |
| 20260508043015 | 27 | 135 | 0.0 | 2.0 | 0.00 | 0.00 | 0.00 | 6550.2 | |
| 20260508042812 | 27 | 180 | 0.0 | 2.0 | 0.00 | 0.00 | 0.00 | 6550.2 | |
| 20260508042607 | 27 | 135 | 2.0 | 2.0 | 0.00 | 0.00 | 0.00 | 6550.2 | |
| 20260508042404 | 27 | 90 | 0.0 | 2.0 | 0.00 | 0.00 | 0.00 | 6550.2 | |
| 20260508042200 | 27 | 138 | 0.0 | 2.0 | 0.00 | 0.00 | 0.00 | 6550.2 | |
| 20260508041956 | 27 | 115 | 1.0 | 2.0 | 0.00 | 0.00 | 0.00 | 6550.2 | |
| 20260508041752 | 27 | 133 | 1.0 | 2.0 | 0.00 | 0.00 | 0.00 | 6550.2 | |
| 20260508041548 | 27 | 132 | 1.0 | 2.0 | 0.00 | 0.00 | 0.00 | 6550.2 | |
| 20260508041140 | 27 | 87 | 1.0 | 2.0 | 0.00 | 0.00 | 0.00 | 6550.2 | |
| 20260508040936 | 27 | 132 | 1.0 | 2.0 | 0.00 | 0.00 | 0.00 | 6550.2 | |
| 20260508040732 | 27 | 135 | 1.0 | 2.0 | 0.00 | 0.00 | 0.00 | 6550.2 | |
| 20260508040528 | 27 | 125 | 1.0 | 2.0 | 0.00 | 0.00 | 0.00 | 6550.2 | |
| 20260508040324 | 27 | 185 | 0.0 | 2.0 | 0.00 | 0.00 | 0.00 | 6550.2 | |
| 20260508040152 | 27 | 157 | 1.0 | 2.0 | 0.00 | 0.00 | 0.00 | 6550.2 | |
| 20260508040120 | 27 | 157 | 1.0 | 2.0 | 0.00 | 0.00 | 0.00 | 6550.2 | |
| 20260508035916 | 27 | 140 | 1.0 | 2.0 | 0.00 | 0.00 | 0.00 | 6550.2 | |
| 20260508035712 | 27 | 137 | 1.0 | 2.0 | 0.00 | 0.00 | 0.00 | 6550.2 | |
| 20260508035602 | 27 | 177 | 1.0 | 2.0 | 0.00 | 0.00 | 0.00 | 6550.2 | |
| 20260508035508 | 27 | 177 | 1.0 | 2.0 | 0.00 | 0.00 | 0.00 | 6550.2 | |
| 20260508035306 | 27 | 101 | 1.0 | 2.0 | 0.00 | 0.00 | 0.00 | 6550.2 | |
| 20260508035100 | 27 | 150 | 1.0 | 3.0 | 0.00 | 0.00 | 0.00 | 6550.2 | |
| 20260508034856 | 27 | 245 | 1.0 | 3.0 | 0.00 | 0.00 | 0.00 | 6550.2 | |
| 20260508034725 | 27 | 125 | 1.0 | 3.0 | 0.00 | 0.00 | 0.00 | 6550.2 | |
| 20260508034652 | 27 | 125 | 1.0 | 3.0 | 0.00 | 0.00 | 0.00 | 6550.2 | |
| 20260508034448 | 27 | 123 | 0.0 | 2.0 | 0.00 | 0.00 | 0.00 | 6550.2 | |
| 20260508034244 | 27 | 178 | 1.0 | 3.0 | 0.00 | 0.00 | 0.00 | 6550.2 | |
| 20260508034040 | 27 | 195 | 1.0 | 3.0 | 0.00 | 0.00 | 0.00 | 6550.2 | |
| 20260508033428 | 27 | 135 | 0.0 | 2.0 | 0.00 | 0.00 | 0.00 | 6550.2 | |
| 20260508033224 | 27 | 111 | 1.0 | 2.0 | 0.00 | 0.00 | 0.00 | 6550.2 | |
| 20260508033020 | 27 | 225 | 0.0 | 2.0 | 0.00 | 0.00 | 0.00 | 6550.2 | |
| 20260508032816 | 27 | 174 | 2.0 | 2.0 | 0.00 | 0.00 | 0.00 | 6550.2 | |
| 20260508032612 | 27 | 190 | 1.0 | 2.0 | 0.00 | 0.00 | 0.00 | 6550.2 | |
| 20260508032408 | 27 | 196 | 0.0 | 3.0 | 0.00 | 0.00 | 0.00 | 6550.2 | |
| 20260508032204 | 27 | 129 | 1.0 | 3.0 | 0.00 | 0.00 | 0.00 | 6550.2 | |
| 20260508032000 | 27 | 178 | 0.0 | 2.0 | 0.00 | 0.00 | 0.00 | 6550.2 | |
| 20260508031756 | 27 | 139 | 0.0 | 2.0 | 0.00 | 0.00 | 0.00 | 6550.2 | |
| 20260508031552 | 27 | 135 | 0.0 | 2.0 | 0.00 | 0.00 | 0.00 | 6550.2 | |
| 20260508031348 | 27 | 111 | 0.0 | 0.0 | 0.00 | 0.00 | 0.00 | 6550.2 | |
| 20260508031146 | 27 | 135 | 0.0 | 2.0 | 0.00 | 0.00 | 0.00 | 6550.2 | |
| 20260508031030 | 27 | 150 | 0.0 | 3.0 | 0.00 | 0.00 | 0.00 | 6550.2 | |
| 20260508030942 | 27 | 150 | 0.0 | 3.0 | 0.00 | 0.00 | 0.00 | 6550.2 | |
| 20260508030738 | 27 | 180 | 1.0 | 3.0 | 0.00 | 0.00 | 0.00 | 6550.2 | |
| 20260508030534 | 27 | 270 | 1.0 | 3.0 | 0.00 | 0.00 | 0.00 | 6550.2 | |
| 20260508030126 | 27 | 192 | 0.0 | 3.0 | 0.00 | 0.00 | 0.00 | 6550.2 | |
| 20260508025922 | 27 | 154 | 1.0 | 2.0 | 0.00 | 0.00 | 0.00 | 6550.2 | |
| 20260508025718 | 27 | 143 | 0.0 | 2.0 | 0.00 | 0.00 | 0.00 | 6550.2 | |
| 20260508025514 | 27 | 180 | 0.0 | 2.0 | 0.00 | 0.00 | 0.00 | 6550.2 | |
| 20260508025310 | 27 | 180 | 1.0 | 2.0 | 0.00 | 0.00 | 0.00 | 6550.2 | |
| 20260508025106 | 27 | 171 | 1.0 | 3.0 | 0.00 | 0.00 | 0.00 | 6550.2 | |
| 20260508024902 | 27 | 180 | 1.0 | 3.0 | 0.00 | 0.00 | 0.00 | 6550.2 | |
| 20260508024658 | 27 | 171 | 1.0 | 3.0 | 0.00 | 0.00 | 0.00 | 6550.2 | |
| 20260508024454 | 27 | 180 | 1.0 | 2.0 | 0.00 | 0.00 | 0.00 | 6550.2 | |
| 20260508024328 | 27 | 180 | 2.0 | 2.0 | 0.00 | 0.00 | 0.00 | 6550.2 | |
| 20260508024250 | 27 | 180 | 2.0 | 2.0 | 0.00 | 0.00 | 0.00 | 6550.2 | |
| 20260508024046 | 27 | 135 | 1.0 | 2.0 | 0.00 | 0.00 | 0.00 | 6550.2 | |
| 20260508023907 | 27 | 179 | 1.0 | 2.0 | 0.00 | 0.00 | 0.00 | 6550.2 | |
| 20260508023638 | 27 | 135 | 0.0 | 2.0 | 0.00 | 0.00 | 0.00 | 6550.2 | |
| 20260508023506 | 27 | 135 | 0.0 | 2.0 | 0.00 | 0.00 | 0.00 | 6550.2 | |
| 20260508023434 | 27 | 135 | 0.0 | 2.0 | 0.00 | 0.00 | 0.00 | 6550.2 | |
| 20260508023230 | 27 | 192 | 1.0 | 2.0 | 0.00 | 0.00 | 0.00 | 6550.2 | |
| 20260508023026 | 27 | 185 | 2.0 | 2.0 | 0.00 | 0.00 | 0.00 | 6550.2 | |
| 20260508022823 | 27 | 212 | 1.0 | 2.0 | 0.00 | 0.00 | 0.00 | 6550.2 | |
| 20260508022618 | 27 | 180 | 2.0 | 3.0 | 0.00 | 0.00 | 0.00 | 6550.2 | |
| 20260508022210 | 27 | 130 | 0.0 | 0.0 | 0.00 | 0.00 | 0.00 | 6550.2 | |
| 20260508022124 | 27 | 226 | 0.0 | 3.0 | 0.00 | 0.00 | 0.01 | 6550.2 | |
| 20260508021919 | 27 | 180 | 0.0 | 3.0 | 0.00 | 0.00 | 0.01 | 6550.2 | |
| 20260508021716 | 27 | 201 | 1.0 | 3.0 | 0.00 | 0.00 | 0.01 | 6550.2 | |
| 20260508021511 | 27 | 192 | 2.0 | 3.0 | 0.00 | 0.00 | 0.01 | 6550.2 | |
| 20260508021103 | 27 | 180 | 1.0 | 3.0 | 0.00 | 0.00 | 0.01 | 6550.2 | |
| 20260508020900 | 27 | 165 | 1.0 | 3.0 | 0.00 | 0.00 | 0.01 | 6550.2 | |
| 20260508020656 | 27 | 214 | 1.0 | 3.0 | 0.00 | 0.00 | 0.01 | 6550.2 | |
| 20260508020527 | 27 | 359 | 0.0 | 3.0 | 0.00 | 0.00 | 0.01 | 6550.2 | |
| 20260508020452 | 27 | 359 | 0.0 | 3.0 | 0.00 | 0.00 | 0.01 | 6550.2 | |
| 20260508020247 | 27 | 180 | 1.0 | 3.0 | 0.00 | 0.00 | 0.01 | 6550.2 | |
| 20260508020044 | 27 | 225 | 0.0 | 3.0 | 0.00 | 0.00 | 0.01 | 6550.2 | |
| 20260508015912 | 27 | 189 | 2.0 | 3.0 | 0.00 | 0.00 | 0.01 | 6550.2 | |
| 20260508015839 | 27 | 189 | 2.0 | 3.0 | 0.00 | 0.00 | 0.01 | 6550.2 | |
| 20260508015707 | 27 | 180 | 2.0 | 3.0 | 0.00 | 0.00 | 0.01 | 6550.2 | |
| 20260508015636 | 27 | 180 | 2.0 | 3.0 | 0.00 | 0.00 | 0.01 | 6550.2 | |
| 20260508015505 | 27 | 165 | 1.0 | 3.0 | 0.00 | 0.00 | 0.01 | 6550.2 | |
| 20260508015431 | 27 | 165 | 1.0 | 3.0 | 0.00 | 0.00 | 0.01 | 6550.2 | |
| 20260508015305 | 27 | 211 | 1.0 | 3.0 | 0.00 | 0.00 | 0.01 | 6550.2 | |
| 20260508015228 | 27 | 211 | 1.0 | 3.0 | 0.00 | 0.00 | 0.01 | 6550.2 | |
| 20260508015023 | 27 | 180 | 3.0 | 4.0 | 0.00 | 0.00 | 0.01 | 6550.2 | |
| 20260508014820 | 27 | 173 | 1.0 | 4.0 | 0.00 | 0.00 | 0.01 | 6550.2 | |
| 20260508014616 | 27 | 180 | 2.0 | 4.0 | 0.00 | 0.00 | 0.01 | 6550.2 | |
| 20260508014412 | 27 | 201 | 1.0 | 3.0 | 0.00 | 0.00 | 0.01 | 6550.2 | |
| 20260508014208 | 27 | 225 | 1.0 | 2.0 | 0.00 | 0.00 | 0.01 | 6550.2 | |
| 20260508014004 | 27 | 203 | 1.0 | 4.0 | 0.00 | 0.00 | 0.01 | 6550.2 | |
| 20260508013800 | 27 | 174 | 1.0 | 4.0 | 0.00 | 0.00 | 0.01 | 6550.2 | |
| 20260508013653 | 27 | 150 | 3.0 | 4.0 | 0.00 | 0.00 | 0.01 | 6550.2 | |
| 20260508013556 | 27 | 150 | 3.0 | 4.0 | 0.00 | 0.00 | 0.01 | 6550.2 | |
| 20260508013352 | 27 | 135 | 1.0 | 2.0 | 0.00 | 0.00 | 0.01 | 6550.2 | |
| 20260508013148 | 27 | 135 | 0.0 | 1.0 | 0.00 | 0.00 | 0.01 | 6550.2 | |
| 20260508012740 | 27 | 180 | 0.0 | 0.0 | 0.00 | 0.00 | 0.01 | 6550.2 | |
| 20260508012536 | 27 | 180 | 0.0 | 1.0 | 0.00 | 0.00 | 0.01 | 6550.2 | |
| 20260508012434 | 27 | 180 | 0.0 | 1.0 | 0.00 | 0.00 | 0.01 | 6550.2 | |
| 20260508012332 | 27 | 180 | 0.0 | 1.0 | 0.00 | 0.00 | 0.01 | 6550.2 | |
| 20260508012128 | 27 | 139 | 1.0 | 1.0 | 0.00 | 0.00 | 0.01 | 6550.2 | |
| 20260508011924 | 27 | 135 | 1.0 | 2.0 | 0.00 | 0.00 | 0.01 | 6550.2 | |
| 20260508011751 | 27 | 135 | 1.0 | 2.0 | 0.00 | 0.00 | 0.01 | 6550.2 | |
| 20260508011720 | 27 | 135 | 1.0 | 2.0 | 0.00 | 0.00 | 0.01 | 6550.2 | |
| 20260508011516 | 27 | 135 | 0.0 | 2.0 | 0.00 | 0.00 | 0.01 | 6550.2 | |
| 20260508011312 | 27 | 135 | 1.0 | 1.0 | 0.00 | 0.00 | 0.01 | 6550.2 | |
| 20260508011108 | 27 | 135 | 0.0 | 1.0 | 0.00 | 0.00 | 0.01 | 6550.2 | |
| 20260508010904 | 27 | 135 | 0.0 | 1.0 | 0.00 | 0.00 | 0.00 | 6550.2 | |
| 20260508010700 | 27 | 135 | 0.0 | 1.0 | 0.00 | 0.00 | 0.00 | 6550.2 | |
| 20260508010456 | 27 | 180 | 0.0 | 1.0 | 0.00 | 0.00 | 0.00 | 6550.2 | |
| 20260508010252 | 27 | 135 | 1.0 | 1.0 | 0.00 | 0.00 | 0.00 | 6550.2 | |
| 20260508010048 | 27 | 135 | 0.0 | 1.0 | 0.00 | 0.00 | 0.00 | 6550.2 | |
| 20260508005844 | 27 | 135 | 0.0 | 0.0 | 0.00 | 0.00 | 0.00 | 6550.2 | |
| 20260508005721 | 27 | 135 | 0.0 | 1.0 | 0.00 | 0.00 | 0.00 | 6550.2 | |
| 20260508005640 | 27 | 135 | 0.0 | 1.0 | 0.00 | 0.00 | 0.00 | 6550.2 | |
| 20260508005436 | 27 | 135 | 0.0 | 1.0 | 0.00 | 0.00 | 0.00 | 6550.2 | |
| 20260508005232 | 27 | 180 | 1.0 | 1.0 | 0.00 | 0.00 | 0.00 | 6550.2 | |
| 20260508005113 | 27 | 130 | 0.0 | 0.0 | 0.00 | 0.00 | 0.00 | 6550.2 | |
| 20260508005028 | 27 | 130 | 0.0 | 0.0 | 0.00 | 0.00 | 0.00 | 6550.2 | |
| 20260508005009 | 27 | 180 | 0.0 | 2.0 | 0.00 | 0.00 | 0.00 | 6550.2 | |
| 20260508004837 | 27 | 90 | 0.0 | 2.0 | 0.00 | 0.00 | 0.00 | 6550.2 | |
| 20260508004805 | 27 | 90 | 0.0 | 2.0 | 0.00 | 0.00 | 0.00 | 6550.2 | |
| 20260508004601 | 27 | 89 | 1.0 | 2.0 | 0.00 | 0.00 | 0.00 | 6550.2 | |
| 20260508004358 | 27 | 117 | 0.0 | 2.0 | 0.00 | 0.00 | 0.00 | 6550.2 | |
| 20260508004153 | 27 | 134 | 1.0 | 1.0 | 0.00 | 0.00 | 0.00 | 6550.2 | |
| 20260508003950 | 27 | 120 | 1.0 | 1.0 | 0.00 | 0.00 | 0.00 | 6550.2 | |
| 20260508003745 | 27 | 135 | 0.0 | 2.0 | 0.00 | 0.00 | 0.00 | 6550.2 | |
| 20260508003542 | 27 | 135 | 0.0 | 3.0 | 0.00 | 0.00 | 0.00 | 6550.2 | |
| 20260508003337 | 27 | 90 | 0.0 | 3.0 | 0.00 | 0.00 | 0.00 | 6550.2 | |
| 20260508003134 | 27 | 90 | 2.0 | 3.0 | 0.00 | 0.00 | 0.00 | 6550.2 | |
| 20260508002929 | 27 | 90 | 1.0 | 2.0 | 0.00 | 0.00 | 0.00 | 6550.2 | |
| 20260508002726 | 27 | 89 | 0.0 | 2.0 | 0.00 | 0.00 | 0.00 | 6550.2 | |
| 20260508002521 | 27 | 174 | 0.0 | 1.0 | 0.00 | 0.00 | 0.00 | 6550.2 | |
| 20260508002404 | 27 | 90 | 0.0 | 1.0 | 0.00 | 0.00 | 0.00 | 6550.2 | |
| 20260508002318 | 27 | 90 | 0.0 | 1.0 | 0.00 | 0.00 | 0.00 | 6550.2 | |
| 20260508002113 | 27 | 135 | 0.0 | 1.0 | 0.00 | 0.00 | 0.00 | 6550.2 | |
| 20260508001910 | 27 | 90 | 0.0 | 2.0 | 0.00 | 0.00 | 0.00 | 6550.2 | |
| 20260508001502 | 27 | 95 | 2.0 | 2.0 | 0.00 | 0.00 | 0.00 | 6550.2 | |
| 20260508001257 | 27 | 90 | 1.0 | 2.0 | 0.00 | 0.00 | 0.00 | 6550.2 | |
| 20260508001145 | 27 | 113 | 1.0 | 2.0 | 0.00 | 0.00 | 0.00 | 6550.2 | |
| 20260508001054 | 27 | 113 | 1.0 | 2.0 | 0.00 | 0.00 | 0.00 | 6550.2 | |
| 20260508000850 | 27 | 135 | 0.0 | 1.0 | 0.00 | 0.00 | 0.00 | 6550.2 | |
| 20260508000646 | 27 | 135 | 0.0 | 1.0 | 0.00 | 0.00 | 0.00 | 6550.2 | |
| 20260508000442 | 27 | 130 | 0.0 | 1.0 | 0.00 | 0.00 | 0.00 | 6550.2 | |
| 20260508000321 | 27 | 89 | 1.0 | 1.0 | 0.00 | 0.00 | 0.00 | 6550.2 | |
| 20260508000238 | 27 | 89 | 1.0 | 1.0 | 0.00 | 0.00 | 0.00 | 6550.2 | |
| 20260508000046 | 27 | 90 | 1.0 | 1.0 | 0.00 | 0.00 | 0.00 | 6550.2 | |
| 20260507235830 | 27 | 180 | 0.0 | 1.0 | 0.00 | 0.00 | 0.00 | 6550.2 | |
| 20260507235626 | 27 | 90 | 0.0 | 1.0 | 0.00 | 0.00 | 0.00 | 6550.2 | |
| 20260507235422 | 27 | 92 | 1.0 | 1.0 | 0.00 | 0.00 | 0.00 | 6550.2 | |
| 20260507235218 | 27 | 45 | 0.0 | 1.0 | 0.00 | 0.00 | 0.00 | 6550.2 | |
| 20260507234810 | 27 | 167 | 1.0 | 1.0 | 0.00 | 0.00 | 0.00 | 6550.2 | |
| 20260507234606 | 27 | 90 | 0.0 | 1.0 | 0.00 | 0.00 | 0.00 | 6550.2 | |
| 20260507234158 | 27 | 135 | 0.0 | 2.0 | 0.00 | 0.00 | 0.00 | 6550.2 | |
| 20260507233954 | 27 | 126 | 0.0 | 2.0 | 0.00 | 0.00 | 0.00 | 6550.2 | |
| 20260507233750 | 27 | 163 | 0.0 | 2.0 | 0.00 | 0.00 | 0.00 | 6550.2 | |
| 20260507233617 | 27 | 139 | 1.0 | 2.0 | 0.00 | 0.00 | 0.00 | 6550.2 | |
| 20260507233546 | 27 | 139 | 1.0 | 2.0 | 0.00 | 0.00 | 0.00 | 6550.2 | |
| 20260507233342 | 27 | 144 | 1.0 | 1.0 | 0.00 | 0.00 | 0.00 | 6550.2 | |
| 20260507233138 | 27 | 135 | 0.0 | 0.0 | 0.00 | 0.00 | 0.00 | 6550.2 | |
| 20260507232934 | 27 | 135 | 0.0 | 1.0 | 0.00 | 0.00 | 0.00 | 6550.2 | |
| 20260507232730 | 27 | 90 | 0.0 | 2.0 | 0.00 | 0.00 | 0.00 | 6550.2 | |
| 20260507232612 | 27 | 89 | 1.0 | 2.0 | 0.00 | 0.00 | 0.00 | 6550.2 | |
| 20260507232526 | 27 | 89 | 1.0 | 2.0 | 0.00 | 0.00 | 0.00 | 6550.2 | |
| 20260507232322 | 27 | 135 | 0.0 | 2.0 | 0.00 | 0.00 | 0.00 | 6550.2 | |
| 20260507232118 | 27 | 220 | 0.0 | 1.0 | 0.00 | 0.00 | 0.00 | 6550.2 | |
| 20260507231914 | 27 | 180 | 0.0 | 1.0 | 0.00 | 0.00 | 0.00 | 6550.2 | |
| 20260507231710 | 27 | 180 | 0.0 | 1.0 | 0.00 | 0.00 | 0.00 | 6550.2 | |
| 20260507231302 | 27 | 180 | 0.0 | 1.0 | 0.00 | 0.00 | 0.00 | 6550.2 | |
| 20260507230854 | 27 | 135 | 0.0 | 1.0 | 0.00 | 0.00 | 0.00 | 6550.2 | |
| 20260507230723 | 27 | 184 | 0.0 | 1.0 | 0.00 | 0.00 | 0.00 | 6550.2 | |
| 20260507230650 | 27 | 184 | 0.0 | 1.0 | 0.00 | 0.00 | 0.00 | 6550.2 | |
| 20260507230446 | 27 | 225 | 0.0 | 1.0 | 0.00 | 0.00 | 0.00 | 6550.2 | |
| 20260507230242 | 27 | 180 | 1.0 | 1.0 | 0.00 | 0.00 | 0.00 | 6550.2 | |
| 20260507230038 | 27 | 180 | 1.0 | 2.0 | 0.00 | 0.00 | 0.00 | 6550.2 | |
| 20260507225834 | 27 | 180 | 1.0 | 3.0 | 0.00 | 0.00 | 0.00 | 6550.2 | |
| 20260507225630 | 27 | 171 | 1.0 | 3.0 | 0.00 | 0.00 | 0.00 | 6550.2 | |
| 20260507225426 | 27 | 220 | 1.0 | 3.0 | 0.00 | 0.00 | 0.00 | 6550.2 | |
| 20260507225222 | 27 | 204 | 1.0 | 3.0 | 0.00 | 0.00 | 0.00 | 6550.2 | |
| 20260507225018 | 27 | 218 | 1.0 | 3.0 | 0.00 | 0.00 | 0.00 | 6550.2 | |
| 20260507224814 | 27 | 202 | 2.0 | 2.0 | 0.00 | 0.00 | 0.00 | 6550.2 | |
| 20260507224646 | 27 | 193 | 1.0 | 2.0 | 0.00 | 0.00 | 0.00 | 6550.2 | |
| 20260507224610 | 27 | 193 | 1.0 | 2.0 | 0.00 | 0.00 | 0.00 | 6550.2 | |
| 20260507224406 | 27 | 211 | 1.0 | 2.0 | 0.00 | 0.00 | 0.00 | 6550.2 | |
| 20260507224202 | 27 | 270 | 1.0 | 2.0 | 0.00 | 0.00 | 0.00 | 6550.2 | |
| 20260507224046 | 27 | 247 | 0.0 | 2.0 | 0.00 | 0.00 | 0.00 | 6550.2 | |
| 20260507223958 | 27 | 247 | 0.0 | 2.0 | 0.00 | 0.00 | 0.00 | 6550.2 | |
| 20260507223754 | 27 | 265 | 2.0 | 2.0 | 0.00 | 0.00 | 0.00 | 6550.2 | |
| 20260507223550 | 27 | 270 | 0.0 | 1.0 | 0.00 | 0.00 | 0.00 | 6550.2 | |
| 20260507223346 | 27 | 180 | 0.0 | 0.0 | 0.00 | 0.00 | 0.00 | 6550.2 | |
| 20260507223143 | 27 | 112 | 0.0 | 0.0 | 0.00 | 0.00 | 0.00 | 6550.2 | |
| 20260507223022 | 27 | 231 | 0.0 | 3.0 | 0.00 | 0.00 | 0.00 | 6550.2 | |
| 20260507222818 | 27 | 315 | 0.0 | 3.0 | 0.00 | 0.00 | 0.00 | 6550.2 | |
| 20260507222614 | 27 | 311 | 2.0 | 3.0 | 0.00 | 0.00 | 0.00 | 6550.2 | |
| 20260507222410 | 27 | 315 | 2.0 | 2.0 | 0.00 | 0.00 | 0.00 | 6550.2 | |
| 20260507222206 | 27 | 307 | 1.0 | 2.0 | 0.00 | 0.00 | 0.00 | 6550.2 | |
| 20260507222002 | 27 | 298 | 1.0 | 4.0 | 0.00 | 0.00 | 0.00 | 6550.2 | |
| 20260507221758 | 27 | 266 | 1.0 | 4.0 | 0.00 | 0.00 | 0.00 | 6550.2 | |
| 20260507221554 | 27 | 238 | 1.0 | 4.0 | 0.00 | 0.00 | 0.00 | 6550.2 | |
| 20260507221350 | 27 | 225 | 1.0 | 4.0 | 0.00 | 0.00 | 0.00 | 6550.2 | |
| 20260507221146 | 27 | 229 | 1.0 | 5.0 | 0.00 | 0.00 | 0.01 | 6550.2 | |
| 20260507220942 | 27 | 254 | 1.0 | 5.0 | 0.00 | 0.00 | 0.01 | 6550.2 | |
| 20260507220738 | 27 | 260 | 4.0 | 5.0 | 0.00 | 0.00 | 0.01 | 6550.2 | |
| 20260507220534 | 27 | 209 | 1.0 | 3.0 | 0.00 | 0.00 | 0.01 | 6550.2 | |
| 20260507220330 | 27 | 265 | 2.0 | 3.0 | 0.00 | 0.00 | 0.01 | 6550.2 | |
| 20260507220126 | 27 | 270 | 1.0 | 2.0 | 0.00 | 0.00 | 0.01 | 6550.2 | |
| 20260507215922 | 27 | 225 | 0.0 | 2.0 | 0.00 | 0.00 | 0.01 | 6550.2 | |
| 20260507215718 | 27 | 270 | 1.0 | 4.0 | 0.00 | 0.00 | 0.01 | 6550.2 | |
| 20260507215514 | 27 | 273 | 1.0 | 4.0 | 0.00 | 0.00 | 0.01 | 6550.2 | |
| 20260507215310 | 27 | 273 | 3.0 | 4.0 | 0.00 | 0.00 | 0.01 | 6550.2 | |
| 20260507215106 | 27 | 309 | 3.0 | 7.0 | 0.00 | 0.00 | 0.01 | 6550.2 | |
| 20260507214902 | 27 | 305 | 4.0 | 7.0 | 0.00 | 0.00 | 0.01 | 6550.2 | |
| 20260507214658 | 27 | 310 | 1.0 | 3.0 | 0.00 | 0.00 | 0.01 | 6550.2 | |
| 20260507214454 | 27 | 260 | 1.0 | 3.0 | 0.00 | 0.00 | 0.01 | 6550.2 | |
| 20260507214250 | 27 | 315 | 1.0 | 3.0 | 0.00 | 0.00 | 0.01 | 6550.2 | |
| 20260507214046 | 27 | 216 | 2.0 | 3.0 | 0.00 | 0.00 | 0.01 | 6550.2 | |
| 20260507213842 | 27 | 242 | 1.0 | 3.0 | 0.00 | 0.00 | 0.01 | 6550.2 | |
| 20260507213638 | 27 | 233 | 1.0 | 3.0 | 0.00 | 0.00 | 0.01 | 6550.2 | |
| 20260507213434 | 27 | 243 | 1.0 | 3.0 | 0.00 | 0.00 | 0.01 | 6550.2 | |
| 20260507213230 | 27 | 77 | 2.0 | 3.0 | 0.00 | 0.00 | 0.01 | 6550.2 | |
| 20260507213026 | 27 | 274 | 0.0 | 3.0 | 0.00 | 0.00 | 0.01 | 6550.2 | |
| 20260507212822 | 27 | 230 | 1.0 | 3.0 | 0.00 | 0.00 | 0.00 | 6550.2 | |
| 20260507212618 | 27 | 213 | 4.0 | 4.0 | 0.00 | 0.00 | 0.00 | 6550.2 | |
| 20260507212414 | 27 | 229 | 1.0 | 2.0 | 0.00 | 0.00 | 0.00 | 6550.2 | |
| 20260507212258 | 27 | 216 | 1.0 | 3.0 | 0.00 | 0.00 | 0.00 | 6550.2 | |
| 20260507212210 | 27 | 216 | 1.0 | 3.0 | 0.00 | 0.00 | 0.00 | 6550.2 | |
| 20260507212006 | 27 | 225 | 0.0 | 3.0 | 0.00 | 0.00 | 0.00 | 6550.2 | |
| 20260507211802 | 27 | 225 | 1.0 | 1.0 | 0.00 | 0.00 | 0.00 | 6550.2 | |
| 20260507211558 | 27 | 170 | 1.0 | 3.0 | 0.00 | 0.00 | 0.00 | 6550.2 | |
| 20260507211354 | 27 | 225 | 0.0 | 4.0 | 0.00 | 0.00 | 0.00 | 6550.2 | |
| 20260507211150 | 27 | 228 | 1.0 | 4.0 | 0.00 | 0.00 | 0.00 | 6550.2 | |
| 20260507210946 | 27 | 212 | 2.0 | 4.0 | 0.00 | 0.00 | 0.00 | 6550.2 | |
| 20260507210742 | 27 | 232 | 1.0 | 4.0 | 0.00 | 0.00 | 0.00 | 6550.2 | |
| 20260507210538 | 27 | 273 | 1.0 | 4.0 | 0.00 | 0.00 | 0.00 | 6550.2 | |
| 20260507210334 | 27 | 256 | 1.0 | 3.0 | 0.00 | 0.00 | 0.00 | 6550.2 | |
| 20260507210130 | 27 | 149 | 1.0 | 4.0 | 0.00 | 0.00 | 0.00 | 6550.2 | |
| 20260507205926 | 27 | 315 | 1.0 | 4.0 | 0.00 | 0.00 | 0.00 | 6550.2 | |
| 20260507205754 | 27 | 315 | 1.0 | 6.0 | 0.00 | 0.00 | 0.00 | 6550.2 | |
| 20260507205722 | 27 | 315 | 1.0 | 6.0 | 0.00 | 0.00 | 0.00 | 6550.2 | |
| 20260507205518 | 27 | 309 | 1.0 | 6.0 | 0.00 | 0.00 | 0.00 | 6550.2 | |
| 20260507205314 | 27 | 296 | 4.0 | 4.0 | 0.00 | 0.00 | 0.00 | 6550.2 | |
| 20260507205153 | 27 | 225 | 1.0 | 4.0 | 0.00 | 0.00 | 0.00 | 6550.2 | |
| 20260507205110 | 27 | 225 | 1.0 | 4.0 | 0.00 | 0.00 | 0.00 | 6550.2 | |
| 20260507204907 | 27 | 282 | 3.0 | 4.0 | 0.00 | 0.00 | 0.00 | 6550.2 | |
| 20260507204702 | 27 | 270 | 1.0 | 3.0 | 0.00 | 0.00 | 0.00 | 6550.2 | |
| 20260507204549 | 27 | 183 | 0.0 | 3.0 | 0.00 | 0.00 | 0.00 | 6550.2 | |
| 20260507204458 | 27 | 183 | 0.0 | 3.0 | 0.00 | 0.00 | 0.00 | 6550.2 | |
| 20260507204254 | 27 | 325 | 3.0 | 3.0 | 0.00 | 0.00 | 0.00 | 6550.2 | |
| 20260507204112 | 27 | 1 | 1.0 | 5.0 | 0.00 | 0.00 | 0.03 | 6550.2 | |
| 20260507204051 | 27 | 112 | 0.0 | 0.0 | 0.00 | 0.00 | 0.00 | 6550.2 | |
| 20260507204022 | 27 | 1 | 1.0 | 5.0 | 0.00 | 0.00 | 0.03 | 6550.2 | |
| 20260507203819 | 27 | 246 | 1.0 | 5.0 | 0.00 | 0.00 | 0.03 | 6550.2 | |
| 20260507203614 | 27 | 347 | 4.0 | 4.0 | 0.00 | 0.00 | 0.03 | 6550.2 | |
| 20260507203411 | 27 | 90 | 0.0 | 4.0 | 0.00 | 0.00 | 0.03 | 6550.2 | |
| 20260507203206 | 27 | 314 | 0.0 | 4.0 | 0.00 | 0.00 | 0.03 | 6550.2 | |
| 20260507203003 | 27 | 336 | 3.0 | 4.0 | 0.00 | 0.00 | 0.03 | 6550.2 | |
| 20260507202759 | 27 | 83 | 2.0 | 4.0 | 0.00 | 0.00 | 0.03 | 6550.2 | |
| 20260507202555 | 27 | 16 | 2.0 | 4.0 | 0.00 | 0.00 | 0.03 | 6550.2 | |
| 20260507202350 | 27 | 315 | 3.0 | 4.0 | 0.00 | 0.00 | 0.03 | 6550.2 | |
| 20260507202147 | 27 | 315 | 1.0 | 8.0 | 0.00 | 0.00 | 0.03 | 6550.2 | |
| 20260507201943 | 27 | 286 | 1.0 | 8.0 | 0.00 | 0.00 | 0.03 | 6550.2 | |
| 20260507201739 | 27 | 318 | 3.0 | 8.0 | 0.00 | 0.00 | 0.03 | 6550.2 | |
| 20260507201535 | 27 | 321 | 2.0 | 6.0 | 0.00 | 0.00 | 0.03 | 6550.2 | |
| 20260507201331 | 27 | 327 | 4.0 | 5.0 | 0.00 | 0.00 | 0.03 | 6550.2 | |
| 20260507201127 | 27 | 330 | 1.0 | 2.0 | 0.00 | 0.00 | 0.03 | 6550.2 | |
| 20260507201047 | 27 | 315 | 1.0 | 4.0 | 0.00 | 0.00 | 0.03 | 6550.2 | |
| 20260507200923 | 27 | 315 | 1.0 | 4.0 | 0.00 | 0.00 | 0.03 | 6550.2 | |
| 20260507200719 | 27 | 328 | 1.0 | 5.0 | 0.00 | 0.00 | 0.03 | 6550.2 | |
| 20260507200551 | 27 | 312 | 2.0 | 5.0 | 0.00 | 0.00 | 0.03 | 6550.2 | |
| 20260507200515 | 27 | 312 | 2.0 | 5.0 | 0.00 | 0.00 | 0.03 | 6550.2 | |
| 20260507200311 | 27 | 327 | 5.0 | 5.0 | 0.00 | 0.00 | 0.03 | 6550.2 | |
| 20260507200107 | 27 | 313 | 2.0 | 4.0 | 0.00 | 0.00 | 0.03 | 6550.2 | |
| 20260507195903 | 27 | 322 | 1.0 | 3.0 | 0.00 | 0.00 | 0.03 | 6550.2 | |
| 20260507195659 | 27 | 320 | 2.0 | 4.0 | 0.00 | 0.00 | 0.03 | 6550.2 | |
| 20260507195528 | 27 | 352 | 2.0 | 5.0 | 0.00 | 0.00 | 0.03 | 6550.2 | |
| 20260507195455 | 27 | 352 | 2.0 | 5.0 | 0.00 | 0.00 | 0.03 | 6550.2 | |
| 20260507195251 | 27 | 323 | 2.0 | 5.0 | 0.00 | 0.00 | 0.03 | 6550.2 | |
| 20260507195134 | 27 | 311 | 4.0 | 4.0 | 0.00 | 0.00 | 0.03 | 6550.2 | |
| 20260507195047 | 27 | 311 | 4.0 | 4.0 | 0.00 | 0.00 | 0.03 | 6550.2 | |
| 20260507194843 | 27 | 304 | 2.0 | 3.0 | 0.00 | 0.00 | 0.03 | 6550.2 | |
| 20260507194639 | 27 | 314 | 1.0 | 6.0 | 0.00 | 0.00 | 0.03 | 6550.2 | |
| 20260507194231 | 27 | 326 | 4.0 | 5.0 | 0.00 | 0.00 | 0.03 | 6550.2 | |
| 20260507194027 | 27 | 318 | 2.0 | 5.0 | 0.00 | 0.00 | 0.03 | 6550.2 | |
| 20260507193850 | 27 | 290 | 4.0 | 6.0 | 0.00 | 0.00 | 0.03 | 6550.2 | |
| 20260507193654 | 27 | 316 | 3.0 | 6.0 | 0.00 | 0.00 | 0.03 | 6550.2 | |
| 20260507193619 | 27 | 316 | 3.0 | 6.0 | 0.00 | 0.00 | 0.03 | 6550.2 | |
| 20260507193415 | 27 | 292 | 3.0 | 6.0 | 0.00 | 0.00 | 0.03 | 6550.2 | |
| 20260507193243 | 27 | 327 | 2.0 | 4.0 | 0.00 | 0.00 | 0.03 | 6550.2 | |
| 20260507193211 | 27 | 327 | 2.0 | 4.0 | 0.00 | 0.00 | 0.03 | 6550.2 | |
| 20260507192803 | 27 | 299 | 3.0 | 7.0 | 0.00 | 0.00 | 0.03 | 6550.2 | |
| 20260507192355 | 27 | 315 | 2.0 | 9.0 | 0.00 | 0.00 | 0.03 | 6550.2 | |
| 20260507192151 | 27 | 331 | 2.0 | 9.0 | 0.00 | 0.00 | 0.03 | 6550.2 | |
| 20260507191947 | 27 | 305 | 2.0 | 5.0 | 0.00 | 0.00 | 0.03 | 6550.2 | |
| 20260507191743 | 27 | 293 | 4.0 | 6.0 | 0.00 | 0.00 | 0.03 | 6550.2 | |
| 20260507191539 | 27 | 276 | 3.0 | 6.0 | 0.00 | 0.00 | 0.03 | 6550.2 | |
| 20260507191335 | 27 | 316 | 6.0 | 8.0 | 0.00 | 0.00 | 0.03 | 6550.2 | |
| 20260507191206 | 27 | 324 | 5.0 | 8.0 | 0.00 | 0.00 | 0.03 | 6550.2 | |
| 20260507191131 | 27 | 324 | 5.0 | 8.0 | 0.00 | 0.00 | 0.03 | 6550.2 | |
| 20260507190927 | 27 | 304 | 7.0 | 8.0 | 0.00 | 0.00 | 0.03 | 6550.2 | |
| 20260507190723 | 27 | 313 | 0.0 | 8.0 | 0.00 | 0.00 | 0.03 | 6550.2 | |
| 20260507190519 | 27 | 283 | 4.0 | 8.0 | 0.00 | 0.00 | 0.03 | 6550.2 | |
| 20260507190315 | 27 | 293 | 9.0 | 9.0 | 0.00 | 0.00 | 0.03 | 6550.2 | |
| 20260507190111 | 27 | 295 | 4.0 | 7.0 | 0.00 | 0.00 | 0.03 | 6550.2 | |
| 20260507185907 | 27 | 308 | 7.0 | 7.0 | 0.00 | 0.00 | 0.03 | 6550.2 | |
| 20260507185703 | 27 | 311 | 5.0 | 7.0 | 0.00 | 0.00 | 0.03 | 6550.2 | |
| 20260507185459 | 27 | 277 | 3.0 | 7.0 | 0.00 | 0.00 | 0.03 | 6550.2 | |
| 20260507185123 | 27 | 278 | 4.0 | 6.0 | 0.00 | 0.00 | 0.03 | 6550.2 | |
| 20260507185051 | 27 | 278 | 4.0 | 6.0 | 0.00 | 0.00 | 0.03 | 6550.2 | |
| 20260507184847 | 27 | 276 | 3.0 | 6.0 | 0.00 | 0.00 | 0.03 | 6550.2 | |
| 20260507184643 | 27 | 301 | 2.0 | 8.0 | 0.00 | 0.00 | 0.03 | 6550.2 | |
| 20260507184439 | 27 | 277 | 4.0 | 8.0 | 0.00 | 0.00 | 0.03 | 6550.2 | |
| 20260507184235 | 27 | 259 | 4.0 | 8.0 | 0.00 | 0.00 | 0.03 | 6550.2 | |
| 20260507184031 | 27 | 265 | 4.0 | 7.0 | 0.00 | 0.00 | 0.03 | 6550.2 | |
| 20260507183827 | 27 | 271 | 6.0 | 6.0 | 0.00 | 0.00 | 0.03 | 6550.2 | |
| 20260507183623 | 27 | 266 | 4.0 | 6.0 | 0.00 | 0.00 | 0.03 | 6550.2 | |
| 20260507183419 | 27 | 272 | 3.0 | 6.0 | 0.00 | 0.00 | 0.03 | 6550.2 | |
| 20260507183215 | 27 | 281 | 4.0 | 7.0 | 0.00 | 0.00 | 0.03 | 6550.2 | |
| 20260507183011 | 27 | 278 | 3.0 | 8.0 | 0.00 | 0.00 | 0.03 | 6550.2 | |
| 20260507182807 | 27 | 267 | 1.0 | 8.0 | 0.00 | 0.00 | 0.02 | 6550.2 | |
| 20260507182603 | 27 | 259 | 6.0 | 8.0 | 0.00 | 0.00 | 0.02 | 6550.2 | |
| 20260507182359 | 27 | 269 | 4.0 | 10.0 | 0.00 | 0.00 | 0.02 | 6550.2 | |
| 20260507182156 | 27 | 279 | 4.0 | 10.0 | 0.00 | 0.00 | 0.02 | 6550.2 | |
| 20260507181748 | 27 | 286 | 5.0 | 11.0 | 0.00 | 0.00 | 0.02 | 6550.2 | |
| 20260507181543 | 27 | 258 | 6.0 | 11.0 | 0.00 | 0.00 | 0.02 | 6550.2 | |
| 20260507181340 | 27 | 280 | 6.0 | 11.0 | 0.00 | 0.00 | 0.02 | 6550.2 | |
| 20260507180932 | 27 | 276 | 4.0 | 7.0 | 0.00 | 0.00 | 0.02 | 6550.2 | |
| 20260507180727 | 27 | 300 | 3.0 | 8.0 | 0.00 | 0.00 | 0.02 | 6550.2 | |
| 20260507180524 | 27 | 298 | 6.0 | 8.0 | 0.00 | 0.00 | 0.02 | 6550.2 | |
| 20260507180319 | 27 | 267 | 1.0 | 8.0 | 0.00 | 0.00 | 0.02 | 6550.2 | |
| 20260507180116 | 27 | 277 | 4.0 | 8.0 | 0.00 | 0.00 | 0.02 | 6550.2 | |
| 20260507180017 | 27 | 295 | 4.0 | 8.0 | 0.00 | 0.00 | 0.02 | 6550.2 | |
| 20260507175911 | 27 | 295 | 4.0 | 8.0 | 0.00 | 0.00 | 0.02 | 6550.2 | |
| 20260507175708 | 27 | 313 | 4.0 | 7.0 | 0.00 | 0.00 | 0.02 | 6550.2 | |
| 20260507175300 | 27 | 261 | 2.0 | 4.0 | 0.00 | 0.00 | 0.02 | 6550.2 | |
| 20260507175055 | 27 | 297 | 3.0 | 8.0 | 0.00 | 0.00 | 0.02 | 6550.2 | |
| 20260507174852 | 27 | 268 | 3.0 | 8.0 | 0.00 | 0.00 | 0.02 | 6550.2 | |
| 20260507174444 | 27 | 283 | 7.0 | 7.0 | 0.00 | 0.00 | 0.02 | 6550.2 | |
| 20260507174240 | 27 | 290 | 7.0 | 7.0 | 0.00 | 0.00 | 0.02 | 6550.2 | |
| 20260507174036 | 27 | 315 | 6.0 | 8.0 | 0.00 | 0.00 | 0.02 | 6550.2 | |
| 20260507173832 | 27 | 307 | 7.0 | 8.0 | 0.00 | 0.00 | 0.02 | 6550.2 | |
| 20260507173628 | 27 | 296 | 7.0 | 8.0 | 0.00 | 0.00 | 0.02 | 6550.2 | |
| 20260507173424 | 27 | 265 | 2.0 | 6.0 | 0.00 | 0.00 | 0.02 | 6550.2 | |
| 20260507173308 | 27 | 317 | 2.0 | 9.0 | 0.00 | 0.00 | 0.02 | 6550.2 | |
| 20260507173220 | 27 | 317 | 2.0 | 9.0 | 0.00 | 0.00 | 0.02 | 6550.2 | |
| 20260507173016 | 27 | 284 | 4.0 | 9.0 | 0.00 | 0.00 | 0.02 | 6550.2 | |
| 20260507172812 | 27 | 288 | 7.0 | 9.0 | 0.00 | 0.00 | 0.02 | 6550.2 | |
| 20260507172608 | 27 | 298 | 5.0 | 8.0 | 0.00 | 0.00 | 0.02 | 6550.2 | |
| 20260507172404 | 27 | 288 | 5.0 | 11.0 | 0.00 | 0.00 | 0.01 | 6550.2 | |
| 20260507172200 | 27 | 294 | 5.0 | 11.0 | 0.00 | 0.00 | 0.01 | 6550.2 | |
| 20260507171956 | 27 | 320 | 5.0 | 12.0 | 0.00 | 0.00 | 0.01 | 6550.2 | |
| 20260507171752 | 27 | 340 | 8.0 | 12.0 | 0.00 | 0.00 | 0.01 | 6550.2 | |
| 20260507171548 | 27 | 277 | 4.0 | 12.0 | 0.00 | 0.00 | 0.01 | 6550.2 | |
| 20260507171441 | 27 | 298 | 5.0 | 12.0 | 0.00 | 0.00 | 0.01 | 6550.2 | |
| 20260507171344 | 27 | 298 | 5.0 | 12.0 | 0.00 | 0.00 | 0.01 | 6550.2 | |
| 20260507171140 | 27 | 318 | 5.0 | 12.0 | 0.00 | 0.00 | 0.01 | 6550.2 | |
| 20260507170936 | 27 | 296 | 3.0 | 8.0 | 0.00 | 0.00 | 0.01 | 6550.2 | |
| 20260507170833 | 27 | 285 | 5.0 | 7.0 | 0.00 | 0.00 | 0.01 | 6550.2 | |
| 20260507170732 | 27 | 285 | 5.0 | 7.0 | 0.00 | 0.00 | 0.01 | 6550.2 | |
| 20260507170528 | 27 | 301 | 6.0 | 7.0 | 0.00 | 0.00 | 0.01 | 6550.2 | |
| 20260507170324 | 27 | 295 | 5.0 | 5.0 | 0.00 | 0.00 | 0.01 | 6550.2 | |
| 20260507170120 | 27 | 311 | 1.0 | 8.0 | 0.00 | 0.00 | 0.01 | 6550.2 | |
| 20260507165916 | 27 | 303 | 3.0 | 8.0 | 0.00 | 0.00 | 0.01 | 6550.2 | |
| 20260507165712 | 27 | 297 | 7.0 | 8.0 | 0.00 | 0.00 | 0.01 | 6550.2 | |
| 20260507165508 | 27 | 270 | 5.0 | 9.0 | 0.00 | 0.00 | 0.01 | 6550.2 | |
| 20260507165306 | 27 | 306 | 3.0 | 9.0 | 0.00 | 0.00 | 0.01 | 6550.2 | |
| 20260507165100 | 27 | 285 | 9.0 | 9.0 | 0.00 | 0.00 | 0.01 | 6550.2 | |
| 20260507163020 | 27 | 314 | 4.0 | 14.0 | 0.00 | 0.00 | 0.01 | 6550.2 | |
| 20260507162408 | 27 | 281 | 4.0 | 7.0 | 0.00 | 0.00 | 0.01 | 6550.2 | |
| 20260507160736 | 27 | 302 | 7.0 | 8.0 | 0.00 | 0.00 | 0.00 | 6550.2 | |
| 20260507153844 | 27 | 232 | 5.0 | 5.0 | 0.00 | 0.00 | 0.00 | 6550.2 | |
| 20260507153640 | 27 | 274 | 3.0 | 6.0 | 0.00 | 0.00 | 0.00 | 6550.2 | |
| 20260507153232 | 27 | 284 | 4.0 | 6.0 | 0.00 | 0.00 | 0.00 | 6550.2 | |
| 20260507152416 | 27 | 230 | 4.0 | 9.0 | 0.00 | 0.00 | 0.00 | 6550.2 | |
| 20260507152008 | 27 | 272 | 4.0 | 11.0 | 0.00 | 0.00 | 0.00 | 6550.2 | |
| 20260507151356 | 27 | 219 | 4.0 | 4.0 | 0.00 | 0.00 | 0.00 | 6550.2 | |
| 20260507150801 | 27 | 221 | 0.0 | 7.0 | 0.00 | 0.00 | 0.00 | 6550.2 | |
| 20260507150336 | 27 | 209 | 3.0 | 9.0 | 0.00 | 0.00 | 0.00 | 6550.2 | |
| 20260507150132 | 27 | 139 | 3.0 | 9.0 | 0.00 | 0.00 | 0.00 | 6550.2 | |
| 20260507145928 | 27 | 225 | 6.0 | 9.0 | 0.00 | 0.00 | 0.00 | 6550.2 | |
| 20260507145724 | 27 | 225 | 3.0 | 6.0 | 0.00 | 0.00 | 0.00 | 6550.2 | |
| 20260507145520 | 27 | 225 | 3.0 | 6.0 | 0.00 | 0.00 | 0.00 | 6550.2 | |
| 20260507145112 | 27 | 228 | 5.0 | 7.0 | 0.00 | 0.00 | 0.00 | 6550.2 | |
| 20260507144908 | 27 | 230 | 4.0 | 4.0 | 0.00 | 0.00 | 0.00 | 6550.2 | |
| 20260507144704 | 27 | 119 | 1.0 | 6.0 | 0.00 | 0.00 | 0.00 | 6550.2 | |
| 20260507142625 | 27 | 108 | 0.0 | 0.0 | 0.00 | 0.00 | 0.00 | 6550.2 | |
| 20260507142413 | 27 | 227 | 0.0 | 9.0 | 0.00 | 0.00 | 0.01 | 6550.2 | |
| 20260507134905 | 27 | 211 | 4.0 | 5.0 | 0.00 | 0.00 | 0.01 | 6550.2 | |
| 20260507134253 | 27 | 270 | 3.0 | 7.0 | 0.00 | 0.00 | 0.01 | 6550.2 | |
| 20260507133845 | 27 | 180 | 3.0 | 9.0 | 0.00 | 0.00 | 0.01 | 6550.2 | |
| 20260507133641 | 27 | 238 | 4.0 | 9.0 | 0.00 | 0.00 | 0.01 | 6550.2 | |
| 20260507133437 | 27 | 268 | 2.0 | 6.0 | 0.00 | 0.00 | 0.01 | 6550.2 | |
| 20260507133233 | 27 | 342 | 1.0 | 6.0 | 0.00 | 0.00 | 0.01 | 6550.2 | |
| 20260507131602 | 27 | 228 | 6.0 | 6.0 | 0.00 | 0.00 | 0.00 | 6550.2 | |
| 20260507131357 | 27 | 270 | 3.0 | 5.0 | 0.00 | 0.00 | 0.00 | 6550.2 | |
| 20260507130650 | 27 | 221 | 2.0 | 7.0 | 0.00 | 0.00 | 0.01 | 6550.2 | |
| 20260507130446 | 27 | 166 | 6.0 | 6.0 | 0.00 | 0.00 | 0.01 | 6550.2 | |
| 20260507130038 | 27 | 243 | 5.0 | 5.0 | 0.00 | 0.00 | 0.01 | 6550.2 | |
| 20260507125834 | 27 | 232 | 1.0 | 6.0 | 0.00 | 0.00 | 0.01 | 6550.2 | |
| 20260507125630 | 27 | 320 | 1.0 | 6.0 | 0.00 | 0.00 | 0.01 | 6550.2 | |
| 20260507125426 | 27 | 226 | 4.0 | 6.0 | 0.00 | 0.00 | 0.01 | 6550.2 | |
| 20260507124610 | 27 | 237 | 4.0 | 9.0 | 0.00 | 0.00 | 0.01 | 6550.2 | |
| 20260507123958 | 27 | 189 | 2.0 | 4.0 | 0.00 | 0.00 | 0.01 | 6550.2 | |
| 20260507122326 | 27 | 195 | 1.0 | 6.0 | 0.00 | 0.00 | 0.01 | 6550.2 | |
| 20260507122122 | 27 | 199 | 3.0 | 6.0 | 0.00 | 0.00 | 0.01 | 6550.2 | |
| 20260507121918 | 27 | 220 | 2.0 | 8.0 | 0.00 | 0.00 | 0.01 | 6550.2 | |
| 20260507121714 | 27 | 175 | 3.0 | 8.0 | 0.00 | 0.00 | 0.00 | 6550.2 | |
| 20260507121510 | 27 | 234 | 3.0 | 4.0 | 0.00 | 0.00 | 0.00 | 6550.2 | |
| 20260507121306 | 27 | 189 | 3.0 | 4.0 | 0.00 | 0.00 | 0.00 | 6550.2 | |
| 20260507121102 | 27 | 181 | 3.0 | 4.0 | 0.00 | 0.00 | 0.00 | 6550.2 | |
| 20260507120858 | 27 | 125 | 1.0 | 3.0 | 0.00 | 0.00 | 0.00 | 6550.2 | |
| 20260507115920 | 27 | 144 | 3.0 | 6.0 | 0.00 | 0.00 | 0.00 | 6550.2 | |
| 20260507113759 | 27 | 224 | 5.0 | 6.0 | 0.00 | 0.00 | 0.00 | 6550.2 | |
| 20260507113554 | 27 | 242 | 3.0 | 7.0 | 0.00 | 0.00 | 0.00 | 6550.2 | |
| 20260507113146 | 27 | 186 | 5.0 | 7.0 | 0.00 | 0.00 | 0.00 | 6550.2 | |
| 20260507112943 | 27 | 258 | 6.0 | 7.0 | 0.00 | 0.00 | 0.00 | 6550.2 | |
| 20260507112738 | 27 | 180 | 3.0 | 7.0 | 0.00 | 0.00 | 0.00 | 6550.2 | |
| 20260507112347 | 27 | 173 | 1.0 | 5.0 | 0.00 | 0.00 | 0.00 | 6550.2 | |
| 20260507111719 | 27 | 177 | 2.0 | 6.0 | 0.00 | 0.00 | 0.00 | 6550.2 | |
| 20260507110659 | 27 | 261 | 4.0 | 5.0 | 0.00 | 0.00 | 0.00 | 6550.2 | |
| 20260507105843 | 27 | 195 | 4.0 | 5.0 | 0.00 | 0.00 | 0.00 | 6550.2 | |
| 20260507104415 | 27 | 228 | 4.0 | 6.0 | 0.00 | 0.00 | 0.00 | 6550.2 | |
| 20260507104211 | 27 | 182 | 3.0 | 3.0 | 0.00 | 0.00 | 0.00 | 6550.2 | |
| 20260507104007 | 27 | 213 | 1.0 | 4.0 | 0.00 | 0.00 | 0.00 | 6550.2 | |
| 20260507103803 | 27 | 297 | 2.0 | 5.0 | 0.00 | 0.00 | 0.00 | 6550.2 | |
| 20260507101359 | 27 | 264 | 3.0 | 5.0 | 0.00 | 0.00 | 0.00 | 6550.2 | |
| 20260507101155 | 27 | 245 | 3.0 | 4.0 | 0.00 | 0.00 | 0.00 | 6550.2 | |
| 20260507100951 | 27 | 167 | 3.0 | 4.0 | 0.00 | 0.00 | 0.00 | 6550.2 |